Waarnemingen

Advertentie
Mijn weer
Dorans, Frankrijk (7296): temperatuur & dauwpunt: 14.10.2018 15:00:00 - 20.10.2018 15:00:00 (CEST)Dorans, Frankrijk (7296): temperatuur 5cm: 14.10.2018 15:00:00 - 20.10.2018 15:00:00 (CEST)Dorans, Frankrijk (7296): temperatuur -20cm & temperatuur -100cm: 14.10.2018 15:00:00 - 20.10.2018 15:00:00 (CEST)Dorans, Frankrijk (7296): windsnelheid & windstoten: 14.10.2018 15:00:00 - 20.10.2018 15:00:00 (CEST)Dorans, Frankrijk (7296): windrichting: 14.10.2018 15:00:00 - 20.10.2018 15:00:00 (CEST)Dorans, Frankrijk (7296): luchtdruk: 14.10.2018 15:00:00 - 20.10.2018 15:00:00 (CEST)Dorans, Frankrijk (7296): zicht: 14.10.2018 15:00:00 - 20.10.2018 15:00:00 (CEST)Dorans, Frankrijk (7296): neerslag: 14.10.2018 15:00:00 - 20.10.2018 15:00:00 (CEST)
Datum & Tijd tt [°C] td [°C] tt 5cm [°C] tt -20cm [°C] tt -100cm [°C] ff [km/u] ff [kn] fx [km/u] fx [kn] dd ppp [hPa] vv [km] rr [mm]
20.10.2018 15:00:00 - - - - - - - - - - - - -
20.10.2018 14:00:00 15,9 10,2 20,9 14,2 15,9 14 8 30 16 O 1027,6 5 0,0
20.10.2018 13:00:00 14,4 10,0 14,8 14,1 15,9 20 11 33 18 ONO 1028,3 4,2 0,0
20.10.2018 12:00:00 11,7 11,5 11,3 14,1 15,9 9 5 24 13 O 1028,8 2,2 0,0
20.10.2018 11:00:00 9,6 9,3 10,1 14,1 15,9 12 7 29 15 O 1028,7 0,2 0,0
20.10.2018 10:00:00 9,1 8,8 8,9 14,1 15,9 15 8 25 13 ONO 1028,6 0,2 0,0
20.10.2018 09:00:00 8,4 8,1 7,5 14,2 15,9 10 5 21 11 O 1028,1 0,1 0,2
20.10.2018 08:00:00 7,5 7,2 4,9 14,3 15,9 8 5 12 6 ZO 1028,0 0,1 0,0
20.10.2018 07:00:00 8,2 7,8 5,6 14,4 15,9 5 3 16 9 O 1027,2 1,0 0,0
20.10.2018 06:00:00 8,4 8,1 5,4 14,6 15,9 4 2 11 6 O 1026,2 0,6 0,0
20.10.2018 05:00:00 8,0 7,6 4,9 14,7 15,9 4 2 9 5 OZO 1025,8 0,1 0,0
20.10.2018 04:00:00 7,9 7,3 5,2 14,8 15,9 1 1 8 4 O 1025,6 0,2 0,0
20.10.2018 03:00:00 8,9 8,4 6,4 15,0 15,9 5 3 14 8 O 1025,3 1,1 0,0
20.10.2018 02:00:00 9,1 8,5 6,5 15,1 15,9 6 3 8 5 ONO 1025,0 0,6 0,0
20.10.2018 01:00:00 9,5 8,7 7,0 15,2 15,9 5 3 7 4 O 1024,9 1,6 0,0
20.10.2018 00:00:00 9,5 8,6 7,6 15,3 15,9 4 2 6 4 NNW 1024,9 1,8 0,2
19.10.2018 23:00:00 10,2 8,8 7,8 15,5 15,9 2 1 9 5 OZO 1024,4 2,7 0,0
19.10.2018 22:00:00 10,7 9,0 8,2 15,6 15,9 4 2 9 5 O 1024,0 3,8 0,0
19.10.2018 21:00:00 11,8 9,2 9,8 15,7 15,9 7 4 9 5 NNO 1023,3 6 0,0
19.10.2018 20:00:00 12,8 9,4 10,1 15,7 15,9 4 2 9 5 ONO 1022,5 7 0,0
19.10.2018 19:00:00 13,7 9,5 11,0 15,7 16,0 6 3 13 7 O 1021,8 8 0,0
19.10.2018 18:00:00 14,8 9,6 14,0 15,7 15,9 8 4 17 9 O 1021,2 8 0,0
19.10.2018 17:00:00 16,5 9,9 17,4 15,5 16,0 9 5 23 12 O 1020,7 10 0,0
19.10.2018 16:00:00 16,6 9,8 21,5 15,4 16,0 11 6 24 13 O 1020,4 10 0,0
19.10.2018 15:00:00 16,2 9,8 22,7 15,2 15,9 13 7 28 15 O 1020,4 9 0,0
19.10.2018 14:00:00 15,3 9,9 21,2 15,1 16,0 13 7 28 15 O 1021,0 8 0,0
19.10.2018 13:00:00 13,5 9,5 16,6 15,0 16,0 18 10 35 19 ONO 1021,6 6 0,0
19.10.2018 12:00:00 12,2 10,1 12,3 15,0 16,0 16 9 32 18 O 1022,0 4,1 0,0
19.10.2018 11:00:00 10,8 9,9 11,4 15,0 16,0 16 9 31 17 O 1022,2 2,4 0,0
19.10.2018 10:00:00 10,5 9,7 10,8 15,0 16,0 14 7 31 17 O 1022,1 1,9 0,0
19.10.2018 09:00:00 10,4 9,6 10,4 15,1 16,0 14 8 29 16 O 1021,6 1,9 0,0
19.10.2018 08:00:00 10,4 9,6 9,6 15,2 16,0 12 7 26 14 O 1021,0 2,1 0,0
19.10.2018 07:00:00 10,3 9,4 9,4 15,3 16,0 11 6 33 18 O 1020,5 2,4 0,0
19.10.2018 06:00:00 10,8 9,9 9,4 15,4 16,0 12 6 28 15 O 1020,1 3,0 0,0
19.10.2018 05:00:00 10,8 9,9 9,0 15,4 16,0 12 6 23 12 OZO 1019,9 2,6 0,0
19.10.2018 04:00:00 10,9 9,8 9,5 15,5 16,0 11 6 21 11 ZO 1019,8 3,0 0,0
19.10.2018 03:00:00 11,7 9,9 10,1 15,6 16,0 11 6 26 14 O 1019,5 4,6 0,0
19.10.2018 02:00:00 12,0 10,2 10,5 15,7 16,0 10 5 23 12 OZO 1019,7 4,8 0,0
19.10.2018 01:00:00 12,8 10,3 11,1 15,8 16,0 10 6 24 13 OZO 1019,5 7 0,0
19.10.2018 00:00:00 14,4 10,4 12,9 15,8 16,0 13 7 29 16 O 1019,3 11 0,0
18.10.2018 23:00:00 15,2 10,6 13,7 15,9 16,0 14 8 31 17 O 1019,0 13 0,0
18.10.2018 22:00:00 16,0 10,1 14,2 16,0 16,0 17 9 32 17 ONO 1018,7 19 0,0
18.10.2018 21:00:00 16,2 10,1 14,1 15,9 16,0 12 7 26 14 O 1018,5 20 0,0
18.10.2018 20:00:00 16,5 9,9 14,7 16,0 16,0 12 7 25 14 O 1017,9 20 0,0
18.10.2018 19:00:00 17,6 9,5 15,7 15,9 16,0 13 7 26 14 O 1017,2 20 0,0
18.10.2018 18:00:00 19,5 8,8 19,6 15,8 16,0 15 8 35 19 O 1016,6 20 0,0
18.10.2018 17:00:00 20,4 8,4 - - - 21 11 35 19 ONO 1016,4 19 -
18.10.2018 16:00:00 20,5 7,8 23,7 15,4 16,0 19 11 38 21 ONO 1016,6 19 0,0
18.10.2018 15:00:00 20,4 9,0 26,1 15,1 16,0 21 11 38 21 ONO 1016,8 20 0,0
18.10.2018 14:00:00 19,9 9,7 26,3 15,0 16,0 18 10 36 19 ONO 1017,2 18 0,0
18.10.2018 13:00:00 18,7 9,2 24,8 14,7 16,0 17 9 34 18 O 1018,0 16 0,0
18.10.2018 12:00:00 16,1 9,7 17,5 14,7 16,0 10 5 25 13 O 1018,9 12 0,0
18.10.2018 11:00:00 13,0 9,4 12,3 14,7 16,0 11 6 23 12 O 1019,4 7 0,0
18.10.2018 10:00:00 10,5 9,1 8,8 14,8 16,0 8 4 16 9 ONO 1019,5 2,9 0,0
18.10.2018 09:00:00 9,5 8,4 7,5 14,9 16,0 5 3 15 8 ONO 1019,4 2,2 0,2
18.10.2018 08:00:00 9,4 8,3 7,0 15,0 16,0 8 4 15 8 O 1019,0 2,5 0,0
18.10.2018 07:00:00 9,6 8,5 7,3 15,1 16,0 8 5 15 8 ONO 1018,5 2,9 0,0
18.10.2018 06:00:00 9,5 8,4 7,1 15,2 16,0 8 4 11 6 NO 1018,5 3,1 0,0
18.10.2018 05:00:00 10,0 8,8 7,7 15,4 16,0 5 3 8 4 NO 1018,3 5 0,0
18.10.2018 04:00:00 10,2 8,3 8,2 15,5 16,1 5 3 9 5 NO 1018,2 6 0,0
18.10.2018 03:00:00 10,9 8,8 8,9 15,6 16,0 5 3 6 4 NO 1018,2 9 0,0
18.10.2018 02:00:00 11,7 8,7 9,6 15,7 16,1 4 2 8 4 ONO 1018,1 11 0,0
18.10.2018 01:00:00 11,9 8,6 9,6 15,8 16,0 2 1 9 5 O 1018,5 12 0,0
18.10.2018 00:00:00 12,6 8,9 10,3 16,0 16,1 3 2 9 5 O 1018,4 14 0,0
17.10.2018 23:00:00 13,1 9,0 11,0 16,0 16,0 4 2 10 5 ZO 1018,3 17 0,0
17.10.2018 22:00:00 14,2 8,8 11,5 16,1 16,1 6 3 13 7 O 1017,9 20 0,0
17.10.2018 21:00:00 15,4 8,6 12,8 16,2 16,1 5 3 24 13 ONO 1017,3 20 0,0
17.10.2018 20:00:00 16,5 8,2 13,1 16,2 16,0 10 5 19 11 O 1017,1 20 0,0
17.10.2018 19:00:00 17,5 7,5 14,2 16,1 16,1 7 4 19 10 OZO 1016,4 20 0,0
17.10.2018 18:00:00 20,3 7,3 21,1 16,0 16,1 8 4 24 13 O 1015,4 20 0,0
17.10.2018 17:00:00 21,7 7,1 22,7 15,8 16,1 9 5 25 14 O 1015,5 20 0,0
17.10.2018 16:00:00 22,1 6,3 27,5 15,5 16,1 15 8 30 16 O 1015,6 20 0,0
17.10.2018 15:00:00 21,9 6,9 28,1 15,2 16,1 11 6 22 12 O 1015,7 20 0,0
17.10.2018 14:00:00 21,3 6,8 29,3 14,9 16,1 12 6 25 13 O 1016,3 20 0,0
17.10.2018 13:00:00 20,7 7,0 27,3 14,7 16,1 10 5 20 11 ONO 1017,1 20 0,0
17.10.2018 12:00:00 17,9 7,6 23,2 14,6 16,1 9 5 16 8 O 1018,3 20 0,0
17.10.2018 11:00:00 14,8 8,3 15,0 14,6 16,1 7 4 15 8 O 1018,9 17 0,0
17.10.2018 10:00:00 12,5 7,6 8,8 14,7 16,1 3 2 8 5 ZO 1019,2 13 0,0
17.10.2018 09:00:00 8,1 7,0 4,8 14,9 16,1 1 1 4 2 ZZW 1020,0 8 0,0
17.10.2018 08:00:00 6,5 5,4 4,8 15,0 16,1 1 1 3 2 W 1020,1 10 0,0
17.10.2018 07:00:00 7,1 5,7 5,6 15,2 16,1 2 1 7 4 ZO 1019,7 10 0,0
17.10.2018 06:00:00 7,9 6,7 6,3 15,3 16,1 2 1 5 3 NNW 1019,7 11 0,0
17.10.2018 05:00:00 8,4 6,5 6,8 15,5 16,1 2 1 5 3 N 1019,6 14 0,0
17.10.2018 04:00:00 8,7 7,0 7,0 15,6 16,1 1 1 3 2 NW 1020,1 13 0,0
17.10.2018 03:00:00 9,5 7,3 7,8 15,7 16,1 1 1 6 3 NNW 1020,3 17 0,0
17.10.2018 02:00:00 10,1 7,3 8,2 16,0 16,1 3 2 6 3 NW 1020,3 19 0,0
17.10.2018 01:00:00 10,9 7,6 9,1 16,1 16,1 5 3 7 4 NNW 1020,2 19 0,0
17.10.2018 00:00:00 11,8 7,5 10,1 16,2 16,1 2 1 6 3 N 1020,0 20 0,0
16.10.2018 23:00:00 14,0 7,5 11,2 16,3 16,1 3 2 7 4 O 1019,8 20 0,0
16.10.2018 22:00:00 14,1 7,2 11,8 16,4 16,1 3 2 8 5 ZO 1019,6 20 0,0
16.10.2018 21:00:00 15,9 7,4 12,6 16,5 16,1 5 3 12 7 ONO 1019,0 20 0,0
16.10.2018 20:00:00 17,7 6,8 14,6 16,5 16,1 8 4 16 9 O 1018,5 20 0,0
16.10.2018 19:00:00 19,2 6,0 16,5 16,4 16,1 5 3 16 8 ONO 1017,7 20 0,0
16.10.2018 18:00:00 21,6 6,3 22,5 16,3 16,1 10 5 19 10 ONO 1016,9 20 0,0
16.10.2018 17:00:00 22,4 7,0 23,4 16,1 16,1 11 6 21 11 ONO 1016,8 20 0,0
16.10.2018 16:00:00 22,4 6,6 29,4 15,8 16,1 10 5 20 11 O 1016,8 20 0,0
16.10.2018 15:00:00 22,2 7,2 30,1 15,5 16,1 13 7 22 12 ONO 1016,9 20 0,0
16.10.2018 14:00:00 21,5 6,6 30,0 15,2 16,1 13 7 23 12 ONO 1017,1 20 0,0
16.10.2018 13:00:00 20,4 7,4 25,9 15,1 16,1 11 6 19 11 ONO 1017,4 20 0,0
16.10.2018 12:00:00 18,0 8,0 21,4 15,0 16,1 9 5 17 9 O 1018,0 20 0,0
16.10.2018 11:00:00 15,2 8,0 16,3 15,0 16,1 9 5 16 9 ZO 1018,5 20 0,0
16.10.2018 10:00:00 12,2 8,5 10,0 15,0 16,1 3 2 8 4 NO 1018,7 15 0,0
16.10.2018 09:00:00 9,3 7,2 5,6 15,2 16,1 1 1 9 5 ZW 1018,9 20 0,0
16.10.2018 08:00:00 8,2 6,7 6,2 15,3 16,1 2 1 9 5 Z 1018,6 11 0,0
16.10.2018 07:00:00 9,5 7,4 7,5 15,4 16,1 3 2 8 4 NO 1018,3 20 0,0
16.10.2018 06:00:00 9,4 7,3 8,0 15,5 16,1 2 1 7 4 ONO 1018,1 19 0,0
16.10.2018 05:00:00 9,8 7,9 7,8 15,6 16,1 2 1 4 2 W 1017,8 19 0,0
16.10.2018 04:00:00 9,8 7,6 8,0 15,8 16,1 3 1 5 3 NNO 1017,5 19 0,0
16.10.2018 03:00:00 10,1 7,5 8,3 16,0 16,1 3 2 9 5 NNW 1017,2 20 0,0
16.10.2018 02:00:00 10,8 7,7 8,9 16,1 16,1 2 1 4 2 NO 1016,9 20 0,0
16.10.2018 01:00:00 11,8 7,9 9,4 16,2 16,1 2 1 5 3 O 1016,5 20 0,0
16.10.2018 00:00:00 12,6 8,1 10,2 16,4 16,1 2 1 5 3 O 1015,9 20 0,0
15.10.2018 23:00:00 13,6 8,0 10,8 16,5 16,1 2 1 9 5 Z 1015,7 20 0,0
15.10.2018 22:00:00 14,5 7,8 11,9 16,6 16,1 3 1 8 5 ZZO 1015,0 20 0,0
15.10.2018 21:00:00 16,2 7,7 12,9 16,7 16,1 3 2 9 5 O 1014,2 20 0,0
15.10.2018 20:00:00 16,9 7,0 13,9 16,8 16,1 3 2 13 7 OZO 1013,8 20 0,0
15.10.2018 19:00:00 19,0 6,8 15,3 16,7 16,1 8 4 21 11 ONO 1012,9 20 0,0
15.10.2018 18:00:00 21,3 6,4 20,3 16,6 16,1 11 6 30 16 ONO 1012,1 20 0,0
15.10.2018 17:00:00 22,7 6,4 23,2 16,4 16,1 16 9 32 18 ONO 1011,6 20 0,0
15.10.2018 16:00:00 23,4 5,8 28,5 16,1 16,1 19 10 35 19 ONO 1011,3 20 0,0
15.10.2018 15:00:00 23,8 6,6 30,2 15,9 16,1 16 9 40 22 ONO 1011,3 20 0,0
15.10.2018 14:00:00 22,1 7,1 28,2 15,6 16,1 18 10 37 20 O 1011,7 20 0,0
15.10.2018 13:00:00 21,0 8,3 27,8 15,5 16,1 16 9 29 16 O 1012,5 20 0,0
15.10.2018 12:00:00 18,8 8,4 23,5 15,3 16,1 13 7 24 13 O 1013,1 20 0,0
15.10.2018 11:00:00 15,9 8,9 17,0 15,3 16,1 8 5 17 9 OZO 1013,8 20 0,0
15.10.2018 10:00:00 13,7 9,3 10,9 15,4 16,1 3 2 6 4 ONO 1014,2 20 0,0
15.10.2018 09:00:00 10,1 9,3 6,5 15,6 16,1 3 2 6 3 NW 1014,6 19 0,2
15.10.2018 08:00:00 8,2 7,4 6,1 15,7 16,1 2 1 5 3 N 1014,5 16 0,0
15.10.2018 07:00:00 8,1 7,0 6,0 15,9 16,1 2 1 4 2 OZO 1014,2 13 0,0
15.10.2018 06:00:00 8,5 6,8 6,2 16,0 16,1 1 1 5 3 ZO 1013,8 20 0,0
15.10.2018 05:00:00 10,0 8,4 7,2 16,2 16,1 3 2 6 3 NNW 1013,4 20 0,0
15.10.2018 04:00:00 9,4 8,0 7,6 16,3 16,1 2 1 4 2 ZZW 1013,8 20 0,0
15.10.2018 03:00:00 11,4 8,4 8,9 16,5 16,1 2 1 8 5 W 1013,5 20 0,0
15.10.2018 02:00:00 11,3 8,7 9,1 16,6 16,1 3 2 8 5 ZW 1013,5 20 0,0
15.10.2018 01:00:00 12,7 8,8 10,5 16,8 16,1 4 2 11 6 ZZW 1013,0 20 0,0
15.10.2018 00:00:00 13,9 8,9 10,5 17,0 16,1 6 3 13 7 ZW 1012,6 20 0,0
14.10.2018 23:00:00 14,6 7,6 12,1 17,1 16,1 3 2 11 6 W 1012,4 20 0,0
14.10.2018 22:00:00 15,7 8,2 12,8 17,2 16,1 9 5 16 9 WZW 1011,9 20 0,0
14.10.2018 21:00:00 18,4 8,1 16,0 17,3 16,1 8 4 16 8 W 1011,1 20 0,0
14.10.2018 20:00:00 19,6 8,9 16,9 17,3 16,1 10 6 17 9 NW 1010,6 20 0,0
14.10.2018 19:00:00 20,8 8,8 18,2 17,2 16,1 7 4 10 6 WNW 1010,2 20 0,0
14.10.2018 18:00:00 24,6 8,1 25,2 17,0 16,1 5 3 16 8 WNW 1009,3 20 0,0
14.10.2018 17:00:00 25,8 8,3 26,3 16,8 16,1 8 5 16 8 NW 1009,2 20 0,0
14.10.2018 16:00:00 25,6 8,6 31,9 16,4 16,0 6 3 16 8 NNW 1009,3 20 0,0
14.10.2018 15:00:00 25,2 9,1 32,0 16,1 16,1 5 3 21 11 N 1009,6 20 0,0

tt = temperatuur
td = dauwpunt
tt 5cm = temperatuur 5cm
tt -20cm = temperatuur -20cm
tt -100cm = temperatuur -100cm
ff = windsnelheid
fx = windstoten
dd = windrichting
ppp = luchtdruk
vv = zicht
rr = neerslag

Weerstations in de omgeving